Tiempo cada hora Murree

Hoy, 28 Octubre, Miércoles

Tiempo Temperatura Precipitaciones Viento Presión Humedad
00:00 +11°C° 0 mm 1 mps 755 mmHg 91%
01:00 +11°C° 0 mm 1 mps 755 mmHg 91%
02:00 +10°C° 0 mm 1 mps 755 mmHg 90%
03:00 +10°C° 0 mm 1 mps 754 mmHg 89%
04:00 +11°C° 0 mm 1 mps 755 mmHg 87%
05:00 +12°C° 0 mm 1 mps 755 mmHg 85%
06:00 +13°C° 0 mm 1 mps 755 mmHg 83%
07:00 +15°C° 0 mm 1 mps 755 mmHg 73%
08:00 +19°C° 0 mm 1 mps 755 mmHg 63%
09:00 +21°C° 0 mm 1 mps 755 mmHg 51%
10:00 +22°C° 0 mm 1 mps 755 mmHg 47%
11:00 +23°C° 0 mm 2 mps 755 mmHg 44%
12:00 +24°C° 0 mm 2 mps 754 mmHg 40%
13:00 +22°C° 0 mm 3 mps 754 mmHg 42%
14:00 +22°C° 0 mm 4 mps 753 mmHg 44%
15:00 +22°C° 0 mm 4 mps 753 mmHg 43%
16:00 +20°C° 0 mm 4 mps 753 mmHg 49%
17:00 +18°C° 0 mm 3 mps 753 mmHg 56%
18:00 +16°C° 0 mm 3 mps 753 mmHg 62%
19:00 +15°C° 0 mm 2 mps 753 mmHg 67%
20:00 +14°C° 0 mm 2 mps 753 mmHg 72%
21:00 +12°C° 0 mm 1 mps 754 mmHg 77%
22:00 +13°C° 0 mm 1 mps 753 mmHg 75%
23:00 +13°C° 0 mm 2 mps 752 mmHg 73%

Mañana, 29 Octubre, Jueves

Tiempo Temperatura Precipitaciones Viento Presión Humedad
00:00 +13°C° 0 mm 2 mps 752 mmHg 71%
01:00 +13°C° 0 mm 2 mps 751 mmHg 70%
02:00 +13°C° 0 mm 2 mps 750 mmHg 70%
03:00 +13°C° 0 mm 2 mps 749 mmHg 69%
04:00 +13°C° 0.1 mm 2 mps 750 mmHg 71%
05:00 +13°C° 0.1 mm 2 mps 750 mmHg 72%
06:00 +13°C° 0.1 mm 2 mps 750 mmHg 74%
07:00 +16°C° 0 mm 3 mps 750 mmHg 67%
08:00 +18°C° 0 mm 4 mps 750 mmHg 60%
09:00 +20°C° 0 mm 5 mps 749 mmHg 52%
10:00 +19°C° 0.3 mm 5 mps 749 mmHg 59%
11:00 +18°C° 0.3 mm 4 mps 748 mmHg 65%
12:00 +17°C° 0.3 mm 3 mps 748 mmHg 71%
13:00 +19°C° 0.5 mm 4 mps 747 mmHg 65%
14:00 +20°C° 0.5 mm 6 mps 746 mmHg 58%
15:00 +21°C° 0.5 mm 7 mps 746 mmHg 52%
16:00 +18°C° 0.1 mm 7 mps 746 mmHg 61%
17:00 +16°C° 0.1 mm 6 mps 746 mmHg 71%
18:00 +14°C° 0.1 mm 6 mps 747 mmHg 80%
19:00 +13°C° 0 mm 5 mps 747 mmHg 84%
20:00 +12°C° 0 mm 4 mps 747 mmHg 88%
21:00 +11°C° 0 mm 3 mps 747 mmHg 92%
22:00 +11°C° 0.1 mm 4 mps 747 mmHg 93%
23:00 +11°C° 0.1 mm 4 mps 747 mmHg 94%

Pasado mañana, 30 Octubre, Viernes

Tiempo Temperatura Precipitaciones Viento Presión Humedad
00:00 +10°C° 0.1 mm 5 mps 748 mmHg 95%
01:00 +10°C° 0.4 mm 5 mps 748 mmHg 93%
02:00 +10°C° 0.4 mm 6 mps 748 mmHg 91%
03:00 +11°C° 0.4 mm 7 mps 748 mmHg 89%
04:00 +11°C° 0.4 mm 7 mps 748 mmHg 89%
05:00 +11°C° 0.4 mm 6 mps 749 mmHg 88%
06:00 +11°C° 0.4 mm 6 mps 749 mmHg 88%
07:00 +11°C° 0.1 mm 6 mps 749 mmHg 85%
08:00 +12°C° 0.1 mm 7 mps 750 mmHg 82%
09:00 +14°C° 0.1 mm 7 mps 750 mmHg 79%
10:00 +15°C° 0 mm 7 mps 750 mmHg 73%
11:00 +16°C° 0 mm 7 mps 750 mmHg 68%
12:00 +17°C° 0 mm 8 mps 750 mmHg 62%
13:00 +17°C° 0 mm 8 mps 750 mmHg 63%
14:00 +17°C° 0 mm 8 mps 749 mmHg 63%
15:00 +17°C° 0 mm 9 mps 749 mmHg 63%
16:00 +15°C° 0 mm 8 mps 750 mmHg 68%
17:00 +13°C° 0 mm 8 mps 750 mmHg 73%
18:00 +12°C° 0 mm 7 mps 750 mmHg 78%
19:00 +12°C° 0 mm 7 mps 751 mmHg 78%
20:00 +12°C° 0 mm 8 mps 751 mmHg 79%
21:00 +12°C° 0 mm 8 mps 751 mmHg 79%
22:00 +12°C° 0 mm 7 mps 751 mmHg 79%
23:00 +12°C° 0 mm 7 mps 751 mmHg 80%

31 Octubre, Sábado

Tiempo Temperatura Precipitaciones Viento Presión Humedad
00:00 +13°C° 0 mm 6 mps 751 mmHg 80%
01:00 +13°C° 0 mm 6 mps 751 mmHg 79%
02:00 +11°C° 0 mm 6 mps 751 mmHg 79%
03:00 +11°C° 0 mm 6 mps 751 mmHg 78%
04:00 +11°C° 0 mm 6 mps 752 mmHg 78%
05:00 +11°C° 0 mm 6 mps 752 mmHg 78%
06:00 +11°C° 0 mm 6 mps 753 mmHg 78%
07:00 +13°C° 0 mm 6 mps 753 mmHg 74%
08:00 +14°C° 0 mm 7 mps 753 mmHg 70%
09:00 +15°C° 0 mm 7 mps 753 mmHg 66%
10:00 +16°C° 0 mm 7 mps 753 mmHg 65%
11:00 +16°C° 0 mm 7 mps 753 mmHg 63%
12:00 +17°C° 0 mm 8 mps 753 mmHg 62%
13:00 +16°C° 0 mm 7 mps 753 mmHg 62%
14:00 +16°C° 0 mm 7 mps 753 mmHg 62%
15:00 +16°C° 0 mm 7 mps 753 mmHg 62%
16:00 +15°C° 0 mm 7 mps 753 mmHg 64%
17:00 +14°C° 0 mm 6 mps 753 mmHg 67%
18:00 +12°C° 0 mm 5 mps 754 mmHg 70%
19:00 +11°C° 0 mm 4 mps 754 mmHg 74%
20:00 +11°C° 0 mm 4 mps 755 mmHg 78%
21:00 +10°C° 0 mm 3 mps 755 mmHg 82%
22:00 +9°C° 0 mm 3 mps 755 mmHg 83%
23:00 +9°C° 0 mm 2 mps 755 mmHg 83%

1 Noviembre, Domingo

Tiempo Temperatura Precipitaciones Viento Presión Humedad
00:00 +9°C° 0 mm 2 mps 755 mmHg 84%
01:00 +8°C° 0 mm 2 mps 755 mmHg 85%
02:00 +8°C° 0 mm 2 mps 755 mmHg 85%
03:00 +7°C° 0 mm 2 mps 755 mmHg 86%
04:00 +8°C° 0 mm 2 mps 756 mmHg 83%
05:00 +9°C° 0 mm 1 mps 756 mmHg 79%
06:00 +10°C° 0 mm 1 mps 757 mmHg 75%
07:00 +12°C° 0 mm 1 mps 757 mmHg 65%
08:00 +15°C° 0 mm 2 mps 757 mmHg 55%
09:00 +17°C° 0 mm 2 mps 757 mmHg 44%
10:00 +19°C° 0 mm 2 mps 757 mmHg 39%
11:00 +21°C° 0 mm 2 mps 757 mmHg 34%
12:00 +24°C° 0 mm 2 mps 757 mmHg 29%
13:00 +24°C° 0 mm 2 mps 756 mmHg 31%
14:00 +24°C° 0 mm 3 mps 756 mmHg 34%
15:00 +24°C° 0 mm 3 mps 756 mmHg 36%
16:00 +21°C° 0 mm 3 mps 756 mmHg 46%
17:00 +19°C° 0 mm 3 mps 756 mmHg 56%
18:00 +17°C° 0 mm 3 mps 756 mmHg 67%
19:00 +16°C° 0 mm 2 mps 757 mmHg 72%
20:00 +15°C° 0 mm 2 mps 757 mmHg 77%
21:00 +14°C° 0 mm 1 mps 758 mmHg 82%
22:00 +13°C° 0 mm 1 mps 758 mmHg 83%
23:00 +13°C° 0 mm 1 mps 757 mmHg 84%

2 Noviembre, Lunes

Tiempo Temperatura Precipitaciones Viento Presión Humedad
00:00 +12°C° 0 mm 0 mps 757 mmHg 85%
01:00 +13°C° 0 mm 1 mps 757 mmHg 83%
02:00 +13°C° 0 mm 1 mps 757 mmHg 81%
03:00 +13°C° 0 mm 1 mps 757 mmHg 79%
04:00 +14°C° 0 mm 2 mps 757 mmHg 75%
05:00 +15°C° 0 mm 2 mps 758 mmHg 71%
06:00 +16°C° 0 mm 3 mps 758 mmHg 67%
07:00 +19°C° 0 mm 3 mps 758 mmHg 57%
08:00 +22°C° 0 mm 4 mps 758 mmHg 47%
09:00 +26°C° 0 mm 5 mps 759 mmHg 37%
10:00 +27°C° 0 mm 5 mps 758 mmHg 34%
11:00 +29°C° 0 mm 4 mps 758 mmHg 30%
12:00 +30°C° 0 mm 4 mps 758 mmHg 27%
13:00 +30°C° 0 mm 4 mps 757 mmHg 26%
14:00 +31°C° 0 mm 3 mps 757 mmHg 25%
15:00 +31°C° 0 mm 3 mps 757 mmHg 24%
16:00 +29°C° 0 mm 2 mps 757 mmHg 27%
17:00 +27°C° 0 mm 2 mps 757 mmHg 30%
18:00 +25°C° 0 mm 1 mps 757 mmHg 34%
19:00 +24°C° 0 mm 2 mps 757 mmHg 35%
20:00 +23°C° 0 mm 2 mps 757 mmHg 37%
21:00 +21°C° 0 mm 2 mps 757 mmHg 39%
22:00 +21°C° 0 mm 2 mps 757 mmHg 41%
23:00 +20°C° 0 mm 3 mps 757 mmHg 43%
Mostrar más

Necesitamos Su Consentimiento

Meteoprog y nuestros Proveedores de Servicios pueden almacenar y acceder a sus datos personales como cookies, identificadores de dispositivo u otras tecnologías similares de su dispositivo y procesar dichos datos para personalizar contenido y anuncios, además de ofrecer funciones de redes sociales y analizar el tráfico.

  • Almacenar y/o acceder a información en su dispositivo

    Se puede almacenar o acceder a cookies, identificadores de dispositivo u otra información de su dispositivo para los fines anteriormente indicados.

  • Anuncios y contenido personalizados, medición de anuncios y contenido, percepciones del público, y desarrollo de productos

    Los anuncios y el contenido pueden personalizarse en base a su perfil. Se pueden añadir más datos para personalizar mejor los anuncios y contenidos. Se puede medir el rendimiento de los anuncios y contenidos. Se puede obtener la percepción sobre el público que ha visto los anuncios y contenidos. Dichos datos pueden usarse para desarrollar o mejorar la experiencia del usuario, sistemas y software.

Al hacer clic en ‘Estoy De Acuerdo’ usted permitirá el uso de las cookies, identificadores de dispositivo, balizas web u otras tecnologías similares indicadas. Su configuración puede cambiarse desde el navegador de su dispositivo.

Para ciertos fines, los intereses legítimos pueden ser considerados por encima del consentimiento. Puede leer más sobre ello en nuestra Política de Privacidad y Cookies.